Cosmos 1452 Rocket - Orbit

View from above orbital plane
View from above orbital plane
View from above satellite
View from above satellite

Ground track
Ground track

The orbit data is extracted from the following two-line orbital elements,

1 13992U 83031B   13143.75660233  .00000144  00000-0  58978-4 0  1401
2 13992 074.0530 210.6581 0005297 214.4172 284.2489 14.35552020575609
Epoch (UTC): 23 May 2013 18:09:30
Eccentricity: 0.0005297
inclination: 74.0530°
perigee height: 769 km
apogee height: 777 km
right ascension of ascending node: 210.6581°
argument of perigee: 214.4172°
revolutions per day: 14.35552020
mean anomaly at epoch: 284.2489°
orbit number at epoch: 57560

The dashed part of the orbit path shows where the satellite is in the earth's shadow,  

Developed and maintained by Chris Peat, Heavens-Above GmbH. Please read the updated FAQ before sending e-mail. Imprint. DLR